[[{"header":{"parameterUnit":"m.s-1","parameterCategory":2,"la1":30.2991,"la2":30.254,"lo1":-89.0895,"lo2":-89.0444,"dy":0.0017,"dx":0.0017,"nx":28,"ny":28,"refTime":"2025-11-09T03:00:00:Z","depth":"0","parameterNumber":2,"parameterNumberName":"U-component_of_CURRENTS"},"data":[0,0,0,0,0,0,0,0,0,0,0,0,0,0,0,0,0,0,0,0,0,0,0,0,0,0,0,0,0,0,0,0,0,0,0,0,0,0,0,0,0,0,0,0,0,0,0,0,0,0,0,0,0,0,0,0,0,0,0.4044,0.4045,0,0.4098,0.4099,0.4099,0.411,0.411,0.4109,0.4109,0.411,0.411,0.4111,0,0,0,0,0,0,0,0,0,0,0,0,0,0.3945,0.3947,0.4044,0.4045,0.4046,0.4098,0.4099,0.4099,0.411,0.411,0.4109,0.4109,0.411,0.411,0.4111,0,0,0,0,0,0,0,0,0,0,0,0,0,0.3991,0.3948,0.4044,0.4059,0.4061,0.4098,0.4099,0.41,0.411,0.4109,0.4109,0.4109,0.411,0.411,0.4111,0.4121,0,0,0.4112,0.4112,0,0,0,0,0,0,0,0,0.3988,0.3994,0.4056,0.4058,0.406,0.4099,0.4065,0.4105,0.411,0.4089,0.4109,0.4109,0.4103,0.4104,0.4113,0.4121,0.4121,0.4112,0.4112,0.4112,0.4112,0,0,0,0,0,0,0,0.3985,0.3992,0.4064,0.4057,0.4059,0.4061,0.4067,0.4072,0.4095,0.4091,0.4092,0.4102,0.4103,0.4113,0.4113,0.4121,0.4112,0.4112,0.4113,0.4113,0.4181,0.4183,0,0,0,0,0,0,0.3983,0.3989,0.4062,0.4065,0.4025,0.4064,0.407,0.4085,0.4096,0.4099,0.4102,0.4102,0.4112,0.4112,0.4113,0.4156,0.4112,0.4113,0.4113,0.418,0.4181,0.4183,0,0,0,0,0,0,0.3981,0.399,0.406,0.403,0.4039,0.4066,0.4083,0.4086,0.4093,0.4105,0.4106,0.4104,0.4112,0.4112,0.4137,0.4155,0.4113,0.4113,0.4178,0.418,0.4182,0.4223,0,0,0,0,0,0,0.3978,0.3989,0.3993,0.403,0.4041,0.409,0.4083,0.4088,0.41,0.4101,0.4108,0.4108,0.4112,0.4137,0.4137,0.4155,0.4114,0.4176,0.4179,0.4182,0.422,0.4227,0.4233,0,0,0,0,0,0.3975,0.3993,0.3993,0.4001,0.4048,0.4092,0.4097,0.4113,0.4101,0.4114,0.4126,0.4107,0.4156,0.4138,0.4139,0.4157,0.4174,0.4178,0.4181,0.4217,0.4225,0.4232,0,0,0,0,0,0,0.3944,0.3997,0.3997,0.4026,0.4057,0.4094,0.411,0.4111,0.413,0.4134,0.4127,0.4129,0.4156,0.4155,0.4136,0.4188,0.4162,0.4166,0.4189,0.4197,0.4203,0.4232,0.4114,0,0,0,0,0,0.3941,0.3971,0.4012,0.4032,0.4052,0.4075,0.409,0.4108,0.4133,0.414,0.4142,0.4154,0.4173,0.4182,0.4197,0.4223,0.428,0.4237,0.4243,0.4249,0.4275,0.4366,0.4383,0.4195,0.4195,0.4195,0,0,0.3931,0.3965,0.3978,0.4027,0.4053,0.4087,0.4084,0.4124,0.4151,0.4137,0.4166,0.4172,0.4184,0.4221,0.4233,0.4221,0.434,0.4253,0.4257,0.4281,0.4371,0.439,0.4406,0.4197,0.4197,0.4196,0,0,0.3936,0.3963,0.399,0.4024,0.4074,0.4099,0.4108,0.415,0.4169,0.4198,0.4203,0.423,0.4236,0.4271,0.4282,0.4333,0.4367,0.4325,0.4383,0.4471,0.4487,0.4502,0.4635,0.4662,0.4331,0.4332,0.4332,0,0.3916,0.3971,0.4002,0.4039,0.408,0.4102,0.4148,0.4168,0.4208,0.4243,0.4212,0.4271,0.4267,0.4341,0.4359,0.4347,0.442,0.4348,0.448,0.4496,0.4511,0.4643,0.4672,0.4334,0.4334,0.4333,0.4333,0,0.3952,0.3993,0.4018,0.4076,0.4113,0.4168,0.4211,0.4242,0.4254,0.4281,0.4346,0.4354,0.44,0.4392,0.4386,0.4492,0.452,0.4474,0.4461,0.4533,0.4667,0.4697,0.4337,0.4336,0.4336,0.4335,0,0,0.392,0.4026,0.4029,0.4085,0.4156,0.4201,0.425,0.4328,0.4382,0.4395,0.4478,0.4492,0.4508,0.4525,0.4527,0.4591,0.4753,0.4582,0.4586,0.4718,0.5001,0.4992,0.5024,0.473,0.4734,0.4738,0.5067,0,0.3945,0.4041,0.4079,0.4167,0.4239,0.4285,0.4333,0.4398,0.4445,0.4522,0.4553,0.462,0.4556,0.4596,0.4649,0.4727,0.4827,0.4672,0.4911,0.492,0.4903,0.5055,0.4817,0.5087,0.5096,0.5101,0.5104,0,0.398,0.405,0.4154,0.4273,0.4304,0.4345,0.4472,0.4514,0.4614,0.4651,0.4718,0.4754,0.4866,0.4785,0.4978,0.4886,0.4963,0.5011,0.5024,0.5022,0.4964,0.501,0.514,0.5003,0.5149,0.5146,0.5143,0,0.4021,0.4109,0.421,0.425,0.4366,0.442,0.4469,0.4562,0.4649,0.4754,0.4848,0.4935,0.5038,0.5111,0.5203,0.5117,0.5428,0.5318,0.5399,0.5401,0.5251,0.5232,0.5274,0.5486,0.5485,0.5484,0.5483,0,0.4101,0.4191,0.4233,0.4311,0.4411,0.4459,0.4593,0.4636,0.476,0.4875,0.4927,0.5056,0.5127,0.5294,0.5317,0.5484,0.5535,0.5475,0.5497,0.5262,0.5241,0.5152,0.5086,0.5497,0.5494,0.5492,0.549,0,0.4243,0.4249,0.4371,0.4448,0.4458,0.4543,0.4678,0.478,0.4863,0.5025,0.508,0.5242,0.5442,0.5547,0.5721,0.5678,0.5652,0.584,0.5588,0.5573,0.5445,0.539,0.5336,0.5186,0.5981,0.5983,0.5985,0,0.4379,0.444,0.4478,0.4515,0.4572,0.4675,0.4749,0.4824,0.4918,0.5123,0.5206,0.5471,0.5615,0.5904,0.5888,0.6009,0.58,0.5855,0.5617,0.5472,0.5428,0.5189,0.5046,0.5464,0.5461,0.5459,0.5457,0,0.4616,0.4584,0.4648,0.4696,0.4749,0.4832,0.4918,0.4995,0.5074,0.5204,0.5353,0.5493,0.5754,0.5754,0.5931,0.5936,0.5556,0.5813,0.5705,0.5093,0.4792,0.4644,0.5257,0.5436,0.5438,0.544,0.5441,0.5442,0.4751,0.4804,0.479,0.4852,0.4899,0.4924,0.4935,0.5013,0.51,0.5135,0.5348,0.5404,0.553,0.5725,0.5726,0.555,0.5501,0.5336,0.5319,0.5118,0.4835,0.5448,0.5603,0.5606,0.5608,0.5611,0.5613,0,0.4838,0.4855,0.4945,0.4923,0.4964,0.4961,0.4985,0.4909,0.4897,0.4993,0.5063,0.5115,0.5185,0.5246,0.52,0.503,0.4756,0.4909,0.4476,0.4385,0.4985,0.4819,0.4755,0.4755,0.4755,0.4755,0.4755,0.4755,0.4855,0.489,0.4907,0.4919,0.4926,0.4808,0.4757,0.4629,0.4599,0.4483,0.4426,0.4502,0.4753,0.4915,0.4772,0.4651,0.4277,0.4113,0.4134,0.4519,0.4552,0.4585,0.441,0.4262,0.4262,0.3279,0.3272,0.3266]},{"header":{"parameterUnit":"m.s-1","parameterCategory":2,"la1":30.2991,"la2":30.254,"lo1":-89.0895,"lo2":-89.0444,"dy":0.0017,"dx":0.0017,"nx":28,"ny":28,"refTime":"2025-11-09T03:00:00:Z","depth":"0","parameterNumber":3,"parameterNumberName":"V-component_of_CURRENTS"},"data":[0,0,0,0,0,0,0,0,0,0,0,0,0,0,0,0,0,0,0,0,0,0,0,0,0,0,0,0,0,0,0,0,0,0,0,0,0,0,0,0,0,0,0,0,0,0,0,0,0,0,0,0,0,0,0,0,0,0,-0.0357,-0.0357,0,-0.0417,-0.0418,-0.0419,-0.0479,-0.0479,-0.0479,-0.0479,-0.0598,-0.0601,-0.0604,0,0,0,0,0,0,0,0,0,0,0,0,0,-0.0402,-0.0401,-0.0357,-0.0357,-0.0357,-0.0417,-0.0418,-0.042,-0.0479,-0.0479,-0.0479,-0.0479,-0.0597,-0.06,-0.0604,0,0,0,0,0,0,0,0,0,0,0,0,0,-0.0421,-0.04,-0.0357,-0.0388,-0.0391,-0.0416,-0.0418,-0.042,-0.0478,-0.0479,-0.0479,-0.0479,-0.0596,-0.06,-0.0605,-0.063,0,0,-0.0619,-0.0621,0,0,0,0,0,0,0,0,-0.042,-0.042,-0.0383,-0.0386,-0.0389,-0.0434,-0.0477,-0.0491,-0.0478,-0.0453,-0.0479,-0.0479,-0.0544,-0.0552,-0.0573,-0.0636,-0.0641,-0.0619,-0.0622,-0.0624,-0.0625,0,0,0,0,0,0,0,-0.0418,-0.0418,-0.0388,-0.0383,-0.0387,-0.0436,-0.0439,-0.0481,-0.0504,-0.0455,-0.0458,-0.0453,-0.0547,-0.0569,-0.0576,-0.0643,-0.0619,-0.0623,-0.0626,-0.0628,-0.0732,-0.0732,0,0,0,0,0,0,-0.0389,-0.0416,-0.0386,-0.0389,-0.0397,-0.0434,-0.0437,-0.0425,-0.0502,-0.0511,-0.0452,-0.0455,-0.0561,-0.0571,-0.0581,-0.0614,-0.0624,-0.0628,-0.0631,-0.0732,-0.0732,-0.0732,0,0,0,0,0,0,-0.039,-0.0386,-0.0383,-0.0399,-0.0401,-0.0431,-0.0419,-0.0426,-0.044,-0.0498,-0.051,-0.0456,-0.0561,-0.0574,-0.0612,-0.0619,-0.063,-0.0635,-0.0732,-0.0732,-0.0732,-0.068,0,0,0,0,0,0,-0.0391,-0.0386,-0.0368,-0.0396,-0.0399,-0.039,-0.0418,-0.0427,-0.0433,-0.0438,-0.0505,-0.0517,-0.0562,-0.0605,-0.0617,-0.0625,-0.0638,-0.0732,-0.0732,-0.0732,-0.0682,-0.0679,-0.0676,0,0,0,0,0,-0.0393,-0.0365,-0.0367,-0.0363,-0.0373,-0.0388,-0.0395,-0.0424,-0.0433,-0.0438,-0.0482,-0.0514,-0.0613,-0.0609,-0.0623,-0.0632,-0.0732,-0.0732,-0.0732,-0.0684,-0.0679,-0.0676,0,0,0,0,0,0,-0.0362,-0.0368,-0.0372,-0.0343,-0.0359,-0.0395,-0.0396,-0.0413,-0.0452,-0.0459,-0.0515,-0.053,-0.0565,-0.0602,-0.0595,-0.0661,-0.0678,-0.0681,-0.0636,-0.0633,-0.063,-0.0596,-0.0642,0,0,0,0,0,-0.0347,-0.0338,-0.0349,-0.0326,-0.033,-0.0362,-0.0369,-0.0391,-0.0424,-0.0441,-0.0483,-0.0532,-0.0578,-0.0605,-0.0649,-0.0685,-0.0679,-0.07,-0.0697,-0.0694,-0.0676,-0.0688,-0.0683,-0.0732,-0.0732,-0.0732,0,0,-0.033,-0.0328,-0.0324,-0.0321,-0.0338,-0.0339,-0.0369,-0.0379,-0.0388,-0.0448,-0.0474,-0.0519,-0.0582,-0.0624,-0.0644,-0.0656,-0.0669,-0.0694,-0.0691,-0.0674,-0.0687,-0.0682,-0.0678,-0.0732,-0.0732,-0.0732,0,0,-0.0291,-0.0289,-0.0271,-0.0284,-0.0296,-0.0319,-0.0314,-0.0346,-0.0371,-0.0398,-0.0446,-0.0486,-0.0552,-0.06,-0.0634,-0.0636,-0.0647,-0.0655,-0.0621,-0.0633,-0.0628,-0.0624,-0.0569,-0.0561,-0.066,-0.066,-0.066,0,-0.0263,-0.0241,-0.0268,-0.0257,-0.0256,-0.0302,-0.0285,-0.0322,-0.0364,-0.0372,-0.0397,-0.0478,-0.054,-0.0584,-0.0596,-0.0629,-0.0612,-0.0631,-0.0626,-0.0623,-0.062,-0.0564,-0.0556,-0.0657,-0.0658,-0.0658,-0.0658,0,-0.0222,-0.0204,-0.0195,-0.0196,-0.0204,-0.0202,-0.0243,-0.0259,-0.0287,-0.0317,-0.0354,-0.0435,-0.0476,-0.0515,-0.0565,-0.0581,-0.0564,-0.0614,-0.0631,-0.0611,-0.0554,-0.0546,-0.0654,-0.0655,-0.0656,-0.0656,0,0,-0.0142,-0.0161,-0.0153,-0.0139,-0.0171,-0.0165,-0.0187,-0.0203,-0.0193,-0.026,-0.0241,-0.0357,-0.0388,-0.0426,-0.0494,-0.0523,-0.0494,-0.0558,-0.056,-0.049,-0.046,-0.0435,-0.0424,-0.0546,-0.0545,-0.0545,-0.0413,0,-0.0091,-0.0057,-0.0083,-0.0047,-0.0031,-0.0079,-0.0085,-0.0114,-0.0147,-0.0145,-0.0235,-0.0254,-0.0361,-0.0372,-0.0422,-0.0473,-0.0477,-0.052,-0.05,-0.0497,-0.047,-0.0417,-0.0427,-0.0312,-0.0405,-0.0404,-0.0403,0,-0.0032,-0.0013,0.0027,0.0039,0.0045,0.0053,0.0059,0.0049,0.0013,-0.0011,-0.0057,-0.0115,-0.017,-0.0258,-0.0327,-0.0346,-0.0391,-0.0433,-0.043,-0.042,-0.0459,-0.0357,-0.0294,-0.0546,-0.0391,-0.0392,-0.0393,0,0.0043,0.0072,0.0111,0.0111,0.0109,0.0125,0.0127,0.0099,0.0117,0.0089,0.0124,0.0021,0.0027,-0.0084,-0.0184,-0.0252,-0.0214,-0.0322,-0.0327,-0.0323,-0.0333,-0.0332,-0.0504,-0.0345,-0.0345,-0.0346,-0.0346,0,0.0104,0.014,0.0153,0.0173,0.0239,0.0211,0.0267,0.025,0.0263,0.0336,0.0211,0.0277,0.007,0.0055,-0.0088,-0.0145,-0.0137,-0.0284,-0.0291,-0.0311,-0.0309,-0.0532,-0.0688,-0.0341,-0.0342,-0.0343,-0.0344,0,0.0163,0.0162,0.0223,0.0253,0.0271,0.0321,0.0367,0.0412,0.0414,0.052,0.053,0.0501,0.0495,0.0326,0.0208,0.003,-0.0194,-0.0084,-0.0055,-0.0064,-0.0372,-0.0522,-0.0649,-0.0764,-0.0093,-0.0092,-0.0091,0,0.0183,0.0223,0.0296,0.0341,0.0356,0.042,0.0468,0.0481,0.0545,0.0686,0.0765,0.0806,0.0894,0.0744,0.0429,0.0231,-0.0048,0.0042,-0.0132,-0.0359,-0.0533,-0.0652,-0.0751,-0.0098,-0.0097,-0.0097,-0.0096,0,0.0247,0.0279,0.033,0.0419,0.0487,0.057,0.0649,0.0738,0.0812,0.0967,0.1199,0.1311,0.1177,0.0999,0.0675,0.0455,-0.0173,0.0052,-0.0216,-0.0565,-0.0674,-0.0796,-0.0174,-0.0089,-0.009,-0.009,-0.0091,-0.0091,0.0305,0.035,0.042,0.0507,0.0595,0.0723,0.0838,0.0985,0.1198,0.151,0.1563,0.1846,0.1462,0.1036,0.068,-0.0046,-0.0069,-0.0299,-0.0452,-0.0542,-0.0709,-0.0031,0.0044,0.0044,0.0044,0.0044,0.0044,0,0.036,0.0406,0.0496,0.0609,0.0732,0.076,0.0964,0.115,0.149,0.1827,0.2109,0.2132,0.1624,0.101,0.006,-0.0457,-0.0718,-0.0768,-0.0994,-0.1067,-0.0481,-0.0544,-0.0555,-0.0555,-0.0555,-0.0554,-0.0554,-0.0554,0.0392,0.0466,0.0505,0.0702,0.0805,0.1022,0.1175,0.1514,0.1809,0.2311,0.2561,0.2698,0.2207,0.0468,-0.0728,-0.1021,-0.1445,-0.1501,-0.169,-0.1369,-0.134,-0.1312,-0.1411,-0.1604,-0.1605,-0.2236,-0.2243,-0.2248]}],[{"header":{"parameterUnit":"m.s-1","parameterCategory":2,"la1":30.2991,"la2":30.254,"lo1":-89.0895,"lo2":-89.0444,"dy":0.0017,"dx":0.0017,"nx":28,"ny":28,"refTime":"2025-11-09T03:00:00:Z","depth":"2","parameterNumber":2,"parameterNumberName":"U-component_of_CURRENTS"},"data":[0,0,0,0,0,0,0,0,0,0,0,0,0,0,0,0,0,0,0,0,0,0,0,0,0,0,0,0,0,0,0,0,0,0,0,0,0,0,0,0,0,0,0,0,0,0,0,0,0,0,0,0,0,0,0,0,0,0,0.2709,0.2713,0,0.2883,0.2883,0.2884,0.2913,0.2913,0.2913,0.2914,0.2951,0.2952,0.2953,0,0,0,0,0,0,0,0,0,0,0,0,0,0.2611,0.261,0.2709,0.2713,0.2717,0.2883,0.2883,0.2884,0.2913,0.2913,0.2913,0.2914,0.2951,0.2952,0.2953,0,0,0,0,0,0,0,0,0,0,0,0,0,0.2688,0.2609,0.2708,0.2765,0.2773,0.2882,0.2883,0.2884,0.2913,0.2913,0.2913,0.2914,0.2951,0.2952,0.2953,0.2955,0,0,0.2957,0.2958,0,0,0,0,0,0,0,0,0.2683,0.2689,0.2753,0.2761,0.2771,0.2893,0.2864,0.2907,0.2913,0.284,0.2914,0.2914,0.2931,0.2934,0.2942,0.2957,0.2959,0.2957,0.2958,0.2959,0.2959,0,0,0,0,0,0,0,0.2677,0.2683,0.2759,0.2757,0.2768,0.2855,0.2861,0.2872,0.2865,0.2847,0.2854,0.2902,0.2932,0.294,0.2943,0.2959,0.2957,0.2958,0.2959,0.296,0.3055,0.3056,0,0,0,0,0,0,0.2681,0.2676,0.2754,0.2766,0.2748,0.2856,0.2864,0.2838,0.2868,0.288,0.2902,0.2903,0.2938,0.2941,0.2944,0.3015,0.2959,0.296,0.296,0.3053,0.3055,0.3057,0,0,0,0,0,0,0.2677,0.2683,0.2747,0.2745,0.2762,0.2858,0.2829,0.2842,0.2878,0.2915,0.292,0.293,0.2938,0.2942,0.2958,0.3014,0.296,0.2961,0.3051,0.3054,0.3056,0.3113,0,0,0,0,0,0,0.2672,0.2678,0.269,0.2742,0.2762,0.2827,0.2832,0.2846,0.2915,0.2918,0.2941,0.2943,0.2939,0.2956,0.2959,0.3014,0.2962,0.3049,0.3052,0.3055,0.3108,0.3117,0.3124,0,0,0,0,0,0.2666,0.2686,0.2687,0.2701,0.2761,0.2831,0.2846,0.2907,0.2916,0.2935,0.2938,0.2944,0.2981,0.2957,0.2961,0.3018,0.3047,0.3051,0.3055,0.3105,0.3115,0.3124,0,0,0,0,0,0,0.2664,0.2694,0.2696,0.2725,0.2781,0.2843,0.2894,0.2922,0.2941,0.2945,0.2947,0.295,0.2997,0.2991,0.2965,0.3057,0.3024,0.3029,0.3061,0.307,0.3078,0.3098,0.2963,0,0,0,0,0,0.2665,0.2667,0.2722,0.2746,0.2771,0.2828,0.2877,0.291,0.2939,0.295,0.2965,0.2984,0.3014,0.3026,0.3047,0.3078,0.3115,0.3124,0.3132,0.3138,0.3159,0.3229,0.3245,0.307,0.307,0.307,0,0,0.2674,0.2697,0.2701,0.2748,0.2785,0.2838,0.2851,0.2923,0.2966,0.2949,0.2995,0.3013,0.3029,0.3073,0.3095,0.3075,0.3215,0.3144,0.3149,0.3166,0.3235,0.3252,0.3267,0.3073,0.3073,0.3072,0,0,0.2706,0.2701,0.2722,0.2758,0.2839,0.2875,0.2899,0.2961,0.2983,0.3028,0.3039,0.3077,0.3112,0.3138,0.3154,0.3216,0.3257,0.324,0.3291,0.3359,0.3375,0.3388,0.3488,0.351,0.3239,0.3239,0.3239,0,0.2725,0.2741,0.2751,0.279,0.2843,0.2888,0.2942,0.2972,0.3035,0.3069,0.3051,0.3147,0.3147,0.3225,0.3244,0.3236,0.3295,0.3251,0.337,0.3384,0.3397,0.3496,0.3519,0.3242,0.3242,0.3241,0.3241,0,0.2761,0.2795,0.2816,0.2856,0.291,0.2965,0.3014,0.3063,0.3099,0.3141,0.3225,0.3226,0.3293,0.3303,0.3287,0.3396,0.3417,0.3376,0.3346,0.3419,0.3518,0.3541,0.3247,0.3246,0.3245,0.3244,0,0,0.2742,0.2823,0.2828,0.287,0.2949,0.2993,0.3065,0.3154,0.3222,0.3265,0.3355,0.3391,0.3419,0.344,0.3443,0.3485,0.3619,0.3475,0.3477,0.3574,0.3816,0.3742,0.376,0.3604,0.3608,0.3611,0.386,0,0.2773,0.2846,0.2886,0.2976,0.3027,0.3086,0.3162,0.3245,0.33,0.3389,0.3422,0.3502,0.3464,0.3511,0.3552,0.36,0.368,0.3558,0.3732,0.3738,0.3661,0.3783,0.3473,0.366,0.3883,0.3887,0.3889,0,0.2804,0.285,0.293,0.3052,0.3079,0.3145,0.3275,0.3342,0.3466,0.3527,0.3612,0.3638,0.3732,0.3669,0.382,0.3752,0.3809,0.3832,0.3841,0.3767,0.3705,0.3617,0.3694,0.3929,0.3926,0.3923,0.392,0,0.2782,0.2893,0.2956,0.2985,0.3119,0.3183,0.3265,0.3392,0.3479,0.3616,0.3696,0.3803,0.3882,0.3944,0.3992,0.393,0.4155,0.4068,0.4073,0.407,0.3836,0.3805,0.4207,0.4206,0.4206,0.4205,0.4204,0,0.2791,0.2835,0.2956,0.2975,0.3098,0.3187,0.3309,0.3423,0.3586,0.3673,0.3763,0.3882,0.3954,0.4064,0.4083,0.4171,0.4246,0.413,0.4135,0.385,0.3818,0.4053,0.4032,0.4214,0.4212,0.4211,0.4209,0,0.2723,0.2801,0.2892,0.3033,0.3088,0.3168,0.3348,0.3415,0.3597,0.3712,0.3769,0.4006,0.4148,0.4208,0.4351,0.4302,0.4371,0.4391,0.407,0.4031,0.4225,0.4204,0.4422,0.4421,0.4421,0.4421,0.442,0,0.2666,0.2723,0.2895,0.2938,0.2994,0.3116,0.3188,0.3413,0.3479,0.3766,0.3815,0.4058,0.414,0.437,0.4373,0.4429,0.4471,0.4172,0.3966,0.4268,0.4252,0.4231,0.4211,0.3707,0.3701,0.3696,0.3692,0,0.2588,0.268,0.2729,0.2806,0.2894,0.3005,0.312,0.3224,0.3429,0.3562,0.3781,0.3897,0.4126,0.4089,0.4189,0.4167,0.4114,0.4072,0.4506,0.3678,0.3607,0.3586,0.3588,0.3647,0.3652,0.3655,0.3657,0.3659,0.2525,0.2508,0.2574,0.266,0.2755,0.2847,0.2918,0.3002,0.3157,0.3307,0.3565,0.3642,0.377,0.3785,0.3723,0.3709,0.3963,0.377,0.378,0.3796,0.3647,0.3575,0.3587,0.3591,0.3594,0.3597,0.36,0,0.2425,0.2397,0.2401,0.2492,0.2533,0.2662,0.2818,0.283,0.291,0.3061,0.3191,0.3047,0.3085,0.3229,0.3142,0.316,0.3064,0.3034,0.2877,0.2928,0.2972,0.2771,0.2484,0.248,0.2476,0.2472,0,0,0.2346,0.226,0.2228,0.2253,0.2327,0.238,0.2473,0.2507,0.2604,0.2604,0.2659,0.2924,0.3123,0.2737,0.2728,0.2591,0.2713,0.2493,0.3405,0.3271,0.3308,0.3439,0.3195,0,0,0,0,0]},{"header":{"parameterUnit":"m.s-1","parameterCategory":2,"la1":30.2991,"la2":30.254,"lo1":-89.0895,"lo2":-89.0444,"dy":0.0017,"dx":0.0017,"nx":28,"ny":28,"refTime":"2025-11-09T03:00:00:Z","depth":"2","parameterNumber":3,"parameterNumberName":"V-component_of_CURRENTS"},"data":[0,0,0,0,0,0,0,0,0,0,0,0,0,0,0,0,0,0,0,0,0,0,0,0,0,0,0,0,0,0,0,0,0,0,0,0,0,0,0,0,0,0,0,0,0,0,0,0,0,0,0,0,0,0,0,0,0,0,0.0181,0.018,0,0.0055,0.0054,0.0053,-0.0008,-0.0009,-0.0009,-0.001,-0.0149,-0.0152,-0.0155,0,0,0,0,0,0,0,0,0,0,0,0,0,0.0196,0.0198,0.0181,0.0179,0.0177,0.0055,0.0054,0.0053,-0.0008,-0.0009,-0.0009,-0.001,-0.0148,-0.0152,-0.0156,0,0,0,0,0,0,0,0,0,0,0,0,0,0.0147,0.0198,0.0182,0.0129,0.0122,0.0056,0.0054,0.0053,-0.0008,-0.0009,-0.0009,-0.001,-0.0146,-0.0151,-0.0156,-0.0175,0,0,-0.0171,-0.0174,0,0,0,0,0,0,0,0,0.015,0.0147,0.0139,0.0132,0.0125,0.0034,0.0008,-0.0026,-0.0008,0.0046,-0.001,-0.001,-0.0091,-0.0101,-0.0116,-0.0181,-0.0187,-0.0172,-0.0175,-0.0177,-0.0178,0,0,0,0,0,0,0,0.0154,0.0151,0.0136,0.0136,0.0128,0.0051,0.0046,0.0001,-0.0014,0.0041,0.0036,0.0014,-0.0094,-0.0111,-0.012,-0.0189,-0.0172,-0.0176,-0.0179,-0.0181,-0.0285,-0.0285,0,0,0,0,0,0,0.017,0.0156,0.014,0.0132,0.0131,0.0052,0.0046,0.0068,-0.0014,-0.0028,0.0015,0.0012,-0.0103,-0.0114,-0.0125,-0.0156,-0.0177,-0.0182,-0.0184,-0.0285,-0.0285,-0.0285,0,0,0,0,0,0,0.0172,0.0172,0.0145,0.0134,0.0125,0.0054,0.0078,0.0066,0.0044,-0.0034,-0.0048,0.0005,-0.0103,-0.0118,-0.0156,-0.0161,-0.0184,-0.0188,-0.0286,-0.0285,-0.0285,-0.0214,0,0,0,0,0,0,0.0174,0.0175,0.0185,0.0137,0.0126,0.0112,0.0077,0.0063,0.003,0.0025,-0.0048,-0.0061,-0.0105,-0.0148,-0.016,-0.0169,-0.0192,-0.0286,-0.0285,-0.0285,-0.0217,-0.0211,-0.0207,0,0,0,0,0,0.0176,0.0191,0.0188,0.0184,0.0149,0.0112,0.01,0.0047,0.003,0.0026,-0.0016,-0.0059,-0.0155,-0.0151,-0.0166,-0.0176,-0.0286,-0.0285,-0.0285,-0.0219,-0.0212,-0.0207,0,0,0,0,0,0,0.0195,0.0185,0.018,0.0191,0.0158,0.01,0.0086,0.0052,0.0015,0.0008,-0.0053,-0.0069,-0.0109,-0.0146,-0.0141,-0.0204,-0.0229,-0.0231,-0.0173,-0.0168,-0.0163,-0.0131,-0.0196,0,0,0,0,0,0.021,0.0224,0.0195,0.02,0.0198,0.0147,0.0121,0.0086,0.0045,0.0027,-0.0018,-0.0069,-0.0118,-0.0143,-0.0191,-0.022,-0.0247,-0.0237,-0.0232,-0.0228,-0.0212,-0.0251,-0.0248,-0.0283,-0.0283,-0.0283,0,0,0.0215,0.0208,0.0215,0.0204,0.0183,0.0181,0.0132,0.0101,0.0092,0.0018,0.0003,-0.0056,-0.0122,-0.0157,-0.0178,-0.0189,-0.0232,-0.0227,-0.0223,-0.0209,-0.025,-0.0247,-0.0244,-0.0283,-0.0283,-0.0283,0,0,0.0231,0.0243,0.0263,0.025,0.0216,0.019,0.0187,0.0143,0.0124,0.009,0.0038,-0.0009,-0.0083,-0.0122,-0.0156,-0.0149,-0.0206,-0.0178,-0.0127,-0.0166,-0.0163,-0.0161,-0.0185,-0.0186,-0.0173,-0.0173,-0.0173,0,0.0234,0.0271,0.0254,0.0267,0.0264,0.0207,0.0225,0.0194,0.0136,0.0126,0.0094,-0.0005,-0.0064,-0.0102,-0.0104,-0.0138,-0.0166,-0.0144,-0.0158,-0.0156,-0.0155,-0.0181,-0.0183,-0.0169,-0.017,-0.017,-0.017,0,0.0273,0.0296,0.0308,0.0326,0.0315,0.0316,0.0286,0.0265,0.0229,0.0192,0.0146,0.007,0.0012,-0.0022,-0.0066,-0.009,-0.0114,-0.0148,-0.0168,-0.0147,-0.0176,-0.0179,-0.0164,-0.0166,-0.0167,-0.0167,0,0,0.0308,0.0335,0.0342,0.0366,0.0353,0.0351,0.0346,0.033,0.0336,0.0259,0.0262,0.0162,0.0114,0.0075,0.001,-0.0025,-0.005,-0.0079,-0.0082,-0.0094,-0.0128,-0.0159,-0.0166,-0.0092,-0.0092,-0.0092,-0.0149,0,0.0351,0.0405,0.04,0.0442,0.0477,0.0438,0.0441,0.0407,0.0381,0.0368,0.0276,0.0245,0.0153,0.0126,0.0073,-0.0013,-0.0055,-0.0031,-0.0154,-0.0157,-0.0181,-0.0169,-0.0151,-0.0202,-0.0152,-0.0153,-0.0153,0,0.0399,0.0436,0.0499,0.0526,0.0539,0.0542,0.0558,0.0555,0.0513,0.0486,0.0431,0.0362,0.0293,0.0216,0.0077,0.0094,-0.001,-0.0082,-0.0087,-0.0139,-0.0194,-0.0218,-0.0209,-0.0159,-0.0158,-0.0158,-0.0158,0,0.0449,0.05,0.0561,0.0574,0.0592,0.0603,0.0607,0.0588,0.0616,0.0575,0.0591,0.0471,0.044,0.0289,0.0123,0.0097,-0.0018,-0.0075,-0.0201,-0.0204,-0.0222,-0.0227,-0.0174,-0.0174,-0.0174,-0.0173,-0.0173,0,0.0504,0.055,0.059,0.0621,0.0683,0.0672,0.073,0.0707,0.0722,0.0783,0.0665,0.0699,0.0457,0.0358,0.0176,-0.0008,0.0014,-0.0182,-0.022,-0.0198,-0.0199,-0.0192,-0.0193,-0.0176,-0.0175,-0.0175,-0.0174,0,0.0548,0.0576,0.064,0.0684,0.0705,0.0749,0.0816,0.0872,0.0865,0.095,0.0944,0.0869,0.074,0.0501,0.0274,0.0085,-0.0105,-0.0181,-0.0133,-0.0166,-0.028,-0.0277,-0.0329,-0.033,-0.0332,-0.0333,-0.0334,0,0.0585,0.0615,0.0691,0.0751,0.0777,0.0851,0.0914,0.0929,0.1024,0.1079,0.115,0.1043,0.1001,0.0654,0.0291,-0.0044,-0.0085,-0.0247,-0.0307,-0.0263,-0.0296,-0.0291,-0.0286,-0.0301,-0.0302,-0.0303,-0.0303,0,0.0638,0.0649,0.0713,0.0846,0.0929,0.1035,0.1144,0.1236,0.1293,0.1365,0.1478,0.1444,0.1097,0.076,0.0269,0.004,-0.0202,-0.0269,-0.0228,-0.0266,-0.0243,-0.0273,-0.0269,-0.0307,-0.0307,-0.0306,-0.0306,-0.0306,0.067,0.0746,0.0842,0.0961,0.1061,0.1236,0.136,0.1499,0.1653,0.1776,0.1722,0.1663,0.1242,0.0619,0.0216,-0.0223,-0.0215,-0.0377,-0.0373,-0.0369,-0.0357,-0.0338,-0.0417,-0.0417,-0.0417,-0.0417,-0.0417,0,0.0736,0.0836,0.0969,0.1143,0.1285,0.1316,0.1533,0.1673,0.1887,0.1928,0.1972,0.1572,0.1165,0.07,0.0042,-0.0352,-0.0383,-0.0465,-0.0419,-0.0412,-0.0407,-0.0396,-0.0466,-0.0467,-0.0468,-0.0469,0,0,0.0789,0.0948,0.1046,0.1309,0.1436,0.1655,0.1789,0.1965,0.2049,0.2094,0.2016,0.1862,0.1289,0.0813,0.0274,-0.0091,-0.0156,-0.0164,-0.0088,0.0035,0.0046,-0.0327,-0.0299,0,0,0,0,0]}],[{"header":{"parameterUnit":"m.s-1","parameterCategory":2,"la1":30.2991,"la2":30.254,"lo1":-89.0895,"lo2":-89.0444,"dy":0.0017,"dx":0.0017,"nx":28,"ny":28,"refTime":"2025-11-09T03:00:00:Z","depth":"4","parameterNumber":2,"parameterNumberName":"U-component_of_CURRENTS"},"data":[0,0,0,0,0,0,0,0,0,0,0,0,0,0,0,0,0,0,0,0,0,0,0,0,0,0,0,0,0,0,0,0,0,0,0,0,0,0,0,0,0,0,0,0,0,0,0,0,0,0,0,0,0,0,0,0,0,0,0.1512,0.1513,0,0.16,0.1601,0.1601,0.166,0.1661,0.1661,0.1662,0.1751,0.1752,0.1754,0,0,0,0,0,0,0,0,0,0,0,0,0,0.1403,0.1404,0.1512,0.1513,0.1515,0.16,0.1601,0.1602,0.166,0.1661,0.1662,0.1662,0.175,0.1752,0.1754,0,0,0,0,0,0,0,0,0,0,0,0,0,0.1463,0.1405,0.1512,0.1557,0.1562,0.16,0.1601,0.1602,0.166,0.1661,0.1662,0.1663,0.1749,0.1752,0.1754,0.1748,0,0,0.1762,0.1763,0,0,0,0,0,0,0,0,0.146,0.1466,0.1549,0.1554,0.156,0.1623,0.1595,0.1652,0.1659,0.1619,0.1662,0.1663,0.171,0.1716,0.1724,0.1752,0.1756,0.1762,0.1764,0.1765,0.1766,0,0,0,0,0,0,0,0.1455,0.1463,0.1543,0.155,0.1557,0.1576,0.1585,0.1606,0.1654,0.1622,0.1628,0.1643,0.1712,0.1722,0.1727,0.1757,0.1762,0.1764,0.1766,0.1767,0.1895,0.1897,0,0,0,0,0,0,0.145,0.1459,0.154,0.1546,0.1516,0.1577,0.1588,0.1599,0.1654,0.1665,0.1642,0.1645,0.1717,0.1724,0.173,0.1824,0.1765,0.1767,0.1769,0.1894,0.1896,0.1898,0,0,0,0,0,0,0.1448,0.1457,0.1537,0.1508,0.152,0.1578,0.159,0.16,0.165,0.167,0.168,0.1687,0.1718,0.1727,0.1782,0.1824,0.1768,0.1771,0.1891,0.1894,0.1897,0.1947,0,0,0,0,0,0,0.1444,0.1455,0.1478,0.1507,0.1522,0.1576,0.159,0.1601,0.1657,0.1663,0.1711,0.1718,0.172,0.1778,0.1784,0.1826,0.1773,0.1889,0.1893,0.1896,0.1943,0.1952,0.1959,0,0,0,0,0,0.144,0.1458,0.1478,0.149,0.1546,0.1577,0.1586,0.1629,0.1658,0.1678,0.1719,0.1718,0.1806,0.1782,0.1789,0.1832,0.1887,0.1892,0.1896,0.194,0.195,0.1959,0,0,0,0,0,0,0.1428,0.1467,0.149,0.1523,0.1558,0.1589,0.1622,0.1651,0.1698,0.1717,0.1738,0.1747,0.1816,0.1816,0.1789,0.1881,0.1849,0.1854,0.188,0.189,0.1897,0.1899,0.1775,0,0,0,0,0,0.1435,0.1459,0.1498,0.1528,0.1551,0.1595,0.1623,0.1649,0.1688,0.1713,0.1751,0.1792,0.1832,0.1855,0.1886,0.1929,0.1948,0.1964,0.1971,0.1978,0.1985,0.204,0.2054,0.1912,0.1912,0.1912,0,0,0.1438,0.1467,0.1481,0.1529,0.1564,0.1596,0.1615,0.1662,0.17,0.1713,0.179,0.1825,0.1852,0.1907,0.1937,0.1915,0.2034,0.1983,0.1989,0.1993,0.2046,0.206,0.2072,0.1915,0.1914,0.1914,0,0,0.1444,0.1486,0.1506,0.1542,0.16,0.162,0.1643,0.1697,0.1738,0.18,0.183,0.1891,0.1947,0.1976,0.1995,0.2064,0.2078,0.2082,0.2117,0.2171,0.2182,0.2193,0.2255,0.227,0.2079,0.2079,0.2079,0,0.1454,0.1486,0.1518,0.1555,0.1591,0.1636,0.1668,0.171,0.1779,0.1822,0.1833,0.1954,0.1979,0.205,0.2077,0.2083,0.2118,0.2076,0.218,0.2191,0.2201,0.2261,0.2278,0.2082,0.2082,0.2081,0.2081,0,0.1468,0.1514,0.1535,0.1591,0.1625,0.1667,0.1718,0.177,0.1827,0.1876,0.1979,0.2019,0.2093,0.2112,0.2116,0.2206,0.2212,0.2188,0.2153,0.2218,0.2278,0.2294,0.2086,0.2085,0.2084,0.2083,0,0,0.1446,0.1527,0.1544,0.1579,0.1655,0.1678,0.1745,0.1816,0.1883,0.1958,0.2049,0.2124,0.2172,0.2197,0.2222,0.2262,0.237,0.226,0.2261,0.2315,0.2508,0.2363,0.2367,0.2366,0.2369,0.2371,0.2528,0,0.146,0.1515,0.156,0.1625,0.1654,0.1723,0.1779,0.1853,0.1931,0.2031,0.2101,0.2205,0.2197,0.2256,0.2296,0.2361,0.2413,0.233,0.2442,0.2445,0.2303,0.238,0.2379,0.2541,0.2544,0.2547,0.2549,0,0.1462,0.1498,0.1553,0.1641,0.1665,0.1718,0.1821,0.1883,0.2018,0.2084,0.2191,0.2273,0.2383,0.2355,0.2491,0.2444,0.2488,0.2517,0.2523,0.2378,0.2329,0.2459,0.2578,0.2576,0.2574,0.2572,0.257,0,0.1396,0.1501,0.154,0.1575,0.1671,0.1727,0.1793,0.1912,0.1978,0.2148,0.2232,0.236,0.246,0.2523,0.2614,0.2572,0.2746,0.2691,0.2603,0.2594,0.2654,0.2641,0.2782,0.2782,0.2782,0.2781,0.2781,0,0.1367,0.1407,0.153,0.1545,0.1617,0.1708,0.18,0.1886,0.2024,0.2118,0.2274,0.2366,0.251,0.2631,0.2665,0.2695,0.2799,0.2629,0.2625,0.2675,0.2662,0.2667,0.2651,0.2787,0.2786,0.2785,0.2784,0,0.1256,0.1347,0.1399,0.1526,0.1579,0.163,0.1781,0.184,0.2003,0.2133,0.2205,0.2415,0.2578,0.2705,0.2838,0.2762,0.2805,0.279,0.2878,0.2874,0.2605,0.2591,0.2694,0.269,0.2687,0.2684,0.2682,0,0.1182,0.1201,0.1351,0.1394,0.146,0.1563,0.1622,0.1794,0.1864,0.2137,0.2186,0.2437,0.2563,0.2654,0.2767,0.2848,0.2808,0.2809,0.2656,0.261,0.2598,0.2588,0.2579,0.2677,0.2676,0.2675,0.2674,0,0.1026,0.1111,0.1158,0.1257,0.1345,0.1413,0.1534,0.1581,0.1795,0.1973,0.2143,0.2276,0.2458,0.2571,0.2677,0.2708,0.2786,0.2773,0.2778,0.2634,0.2591,0.2579,0.2573,0.2663,0.2664,0.2665,0.2666,0,0.0916,0.0927,0.1025,0.1107,0.1203,0.1252,0.1336,0.1462,0.1572,0.1898,0.1948,0.2223,0.2432,0.2502,0.2584,0.2627,0.2568,0.2453,0.2473,0.2487,0.2343,0.2253,0.2234,0,0,0,0,0,0.08,0.0814,0.0863,0.0956,0.1042,0.1108,0.1267,0.1365,0.1607,0.1677,0.1815,0.1988,0.2162,0.2289,0.2295,0.2466,0.2554,0.2457,0.2423,0.2601,0.2614,0.2462,0,0,0,0,0,0,0.0726,0.0766,0.081,0.0815,0.0847,0.0929,0.1031,0.1194,0.1257,0.1522,0.1636,0.1836,0.2036,0.2139,0.2244,0.2283,0.2215,0.262,0.2615,0.2593,0.2605,0.2616,0.2464,0,0,0,0,0]},{"header":{"parameterUnit":"m.s-1","parameterCategory":2,"la1":30.2991,"la2":30.254,"lo1":-89.0895,"lo2":-89.0444,"dy":0.0017,"dx":0.0017,"nx":28,"ny":28,"refTime":"2025-11-09T03:00:00:Z","depth":"4","parameterNumber":3,"parameterNumberName":"V-component_of_CURRENTS"},"data":[0,0,0,0,0,0,0,0,0,0,0,0,0,0,0,0,0,0,0,0,0,0,0,0,0,0,0,0,0,0,0,0,0,0,0,0,0,0,0,0,0,0,0,0,0,0,0,0,0,0,0,0,0,0,0,0,0,0,0.0271,0.027,0,0.0223,0.0222,0.0222,0.0194,0.0194,0.0194,0.0194,0.0102,0.01,0.0097,0,0,0,0,0,0,0,0,0,0,0,0,0,0.0296,0.0296,0.0271,0.027,0.027,0.0223,0.0222,0.0222,0.0194,0.0194,0.0194,0.0193,0.0103,0.01,0.0097,0,0,0,0,0,0,0,0,0,0,0,0,0,0.0271,0.0296,0.0271,0.025,0.0248,0.0223,0.0222,0.0221,0.0194,0.0194,0.0194,0.0193,0.0104,0.01,0.0097,0.0079,0,0,0.0086,0.0085,0,0,0,0,0,0,0,0,0.0273,0.027,0.0254,0.0251,0.0249,0.0214,0.0198,0.0172,0.0194,0.0215,0.0194,0.0193,0.0135,0.0129,0.0122,0.0075,0.0071,0.0086,0.0084,0.0082,0.0081,0,0,0,0,0,0,0,0.0274,0.0272,0.0252,0.0253,0.025,0.0228,0.0225,0.0192,0.0176,0.0213,0.0211,0.0205,0.0134,0.0125,0.0119,0.007,0.0086,0.0083,0.0081,0.0079,0.0011,0.0011,0,0,0,0,0,0,0.0282,0.0274,0.0254,0.0251,0.026,0.0228,0.0224,0.0226,0.0177,0.017,0.0205,0.0204,0.0131,0.0123,0.0116,0.0112,0.0082,0.0079,0.0077,0.0011,0.0011,0.0011,0,0,0,0,0,0,0.0283,0.0281,0.0256,0.026,0.0256,0.0228,0.023,0.0225,0.022,0.0172,0.0164,0.0206,0.0131,0.0121,0.0093,0.0107,0.0077,0.0074,0.001,0.0011,0.0011,0.009,0,0,0,0,0,0,0.0284,0.0282,0.0286,0.0261,0.0256,0.0252,0.023,0.0224,0.0216,0.0214,0.0169,0.0161,0.013,0.0099,0.009,0.0102,0.0072,0.001,0.001,0.0011,0.0088,0.0094,0.0099,0,0,0,0,0,0.0285,0.0295,0.0286,0.0284,0.0262,0.0253,0.0248,0.0228,0.0217,0.0221,0.0188,0.0162,0.0096,0.0096,0.0086,0.0097,0.001,0.001,0.0011,0.0085,0.0092,0.0099,0,0,0,0,0,0,0.0305,0.0293,0.0282,0.0287,0.0275,0.0248,0.0253,0.0233,0.0212,0.0208,0.0163,0.0152,0.0133,0.0102,0.0104,0.0077,0.0049,0.0048,0.0109,0.0115,0.0121,0.0138,0.0069,0,0,0,0,0,0.0312,0.0317,0.0299,0.0302,0.0305,0.0279,0.0273,0.0255,0.0232,0.0223,0.0195,0.0159,0.0126,0.0112,0.0079,0.0065,0.0019,0.0064,0.007,0.0075,0.0081,0.0022,0.0023,0.0013,0.0013,0.0013,0,0,0.0317,0.0312,0.0313,0.0306,0.03,0.0311,0.0276,0.0272,0.0275,0.0215,0.0218,0.0176,0.0126,0.0111,0.01,0.0088,0.0053,0.0076,0.0081,0.0084,0.0022,0.0023,0.0024,0.0014,0.0013,0.0013,0,0,0.034,0.0335,0.0353,0.0353,0.0346,0.0332,0.0335,0.0317,0.0308,0.0294,0.0253,0.0223,0.018,0.015,0.0127,0.0142,0.0082,0.013,0.0176,0.0119,0.0119,0.0119,0.006,0.0053,0.0137,0.0137,0.0137,0,0.0347,0.0368,0.0355,0.0377,0.0385,0.0349,0.0374,0.0359,0.033,0.0325,0.0306,0.0238,0.02,0.0172,0.0181,0.0156,0.0109,0.0158,0.0127,0.0125,0.0124,0.0063,0.0055,0.0141,0.014,0.014,0.014,0,0.0388,0.0406,0.0422,0.0442,0.0447,0.046,0.0446,0.0441,0.0422,0.04,0.0371,0.0312,0.0273,0.0256,0.0224,0.0197,0.0163,0.0139,0.0113,0.013,0.0064,0.0055,0.0146,0.0145,0.0144,0.0143,0,0,0.0403,0.0443,0.045,0.0475,0.0484,0.0493,0.0505,0.0503,0.0508,0.0467,0.0464,0.0407,0.0368,0.0339,0.0288,0.0243,0.0193,0.0195,0.019,0.0143,0.0059,0.0037,0.0024,0.016,0.0159,0.0158,0.0017,0,0.0441,0.0502,0.0507,0.0559,0.0594,0.0577,0.0595,0.0583,0.0561,0.0548,0.0477,0.0454,0.0401,0.0382,0.0327,0.0224,0.0171,0.0233,0.0044,0.0038,0.0022,0.0014,0.0154,0.001,0.0007,0.0006,0.0005,0,0.0486,0.0521,0.0588,0.0631,0.0646,0.067,0.0691,0.07,0.0667,0.0642,0.0595,0.054,0.0469,0.0422,0.0253,0.0293,0.0188,0.0105,0.0096,0.0044,-0.0001,-0.0012,-0.0014,-0.0012,-0.0011,-0.001,-0.0009,0,0.0519,0.0578,0.0635,0.0653,0.0693,0.072,0.0742,0.0736,0.0756,0.0708,0.0701,0.0596,0.0544,0.0404,0.0237,0.0241,0.004,0.0021,-0.01,-0.0104,-0.0077,-0.0075,-0.0097,-0.0097,-0.0096,-0.0096,-0.0096,0,0.0563,0.0607,0.0661,0.0693,0.0764,0.0776,0.0838,0.083,0.0833,0.0853,0.0761,0.073,0.0538,0.0405,0.0248,0.0041,0.0042,-0.0097,-0.0141,-0.0041,-0.0033,-0.0084,-0.0081,-0.0101,-0.01,-0.0099,-0.0098,0,0.0598,0.0626,0.0695,0.0756,0.0787,0.0842,0.0925,0.0961,0.0945,0.0964,0.0955,0.0825,0.0637,0.0436,0.019,0.006,-0.0135,-0.0208,-0.0088,-0.0123,-0.0245,-0.0235,-0.0357,-0.0359,-0.036,-0.0362,-0.0363,0,0.0623,0.0666,0.0756,0.0803,0.084,0.0926,0.099,0.1018,0.1055,0.1017,0.1022,0.0862,0.0746,0.0383,0.0159,-0.0156,-0.0196,-0.0297,-0.0266,-0.024,-0.0272,-0.026,-0.0249,-0.0366,-0.0366,-0.0366,-0.0367,0,0.0671,0.0703,0.0757,0.0861,0.0939,0.1033,0.1121,0.1158,0.1174,0.1162,0.1068,0.0883,0.0659,0.0377,0.0127,-0.0094,-0.023,-0.0314,-0.0312,-0.0284,-0.0252,-0.0279,-0.0266,-0.0373,-0.0372,-0.0371,-0.0371,0,0.0702,0.0748,0.0818,0.0908,0.1009,0.1103,0.1152,0.1186,0.122,0.1176,0.1136,0.0897,0.0756,0.0406,0.0178,-0.0047,-0.0101,-0.016,-0.0167,-0.0163,-0.0065,0.0007,-0.0075,0,0,0,0,0,0.0725,0.0773,0.086,0.0954,0.1058,0.112,0.1218,0.1251,0.1272,0.1219,0.1182,0.0973,0.0614,0.0454,0.0224,0.0141,-0.0142,-0.0136,-0.0213,-0.0404,-0.0397,-0.0317,0,0,0,0,0,0,0.0731,0.0809,0.0855,0.0979,0.1051,0.1172,0.1237,0.1255,0.1223,0.12,0.1012,0.0916,0.0567,0.0743,0.0218,0.0148,0.0068,-0.0304,-0.0309,-0.0408,-0.0402,-0.0396,-0.0311,0,0,0,0,0]}]]